Weather History for Hibbing, MN

Change the Weather History Date:

Sunday, September 15, 2013

  Actual Average Record
Temperature  
Mean Temperature 46 °F -  
Max Temperature 60 °F 63 °F 81 °F (2006)
Min Temperature 33 °F 40 °F 21 °F (2007)
Degree Days  
Heating Degree Days 19    
Moisture  
Dew Point 45 °F    
Average Humidity 81    
Maximum Humidity 94    
Minimum Humidity 49    
Precipitation  
Precipitation 0.00 in - - ()
Sea Level Pressure  
Sea Level Pressure 30.15 in    
Wind  
Wind Speed 4 mph (NNE)    
Max Wind Speed 13 mph    
Max Gust Speed 17 mph    
Visibility 9 miles    
Events Rain    
Averages and records for this station are not official NWS values.
T = Trace of Precipitation, MM = Missing Value Source: NWS Daily Summary

Daily Weather History Graph

Daily Weather History Graph

Search for Another Location

Airport:

Trip Planner

Search our weather history database for the weather conditions in past years. The results will help you decide how hot, cold, wet, or windy it might be!

Date:

Astronomy

Sep. 15, 2013 Rise Set
Actual Time 6:49 AM CDT 7:22 PM CDT
Civil Twilight 6:18 AM CDT 7:53 PM CDT
Nautical Twilight 5:41 AM CDT 8:30 PM CDT
Astronomical Twilight 5:03 AM CDT 9:08 PM CDT
Moon 5:02 PM CDT (9/15) 2:13 AM CDT (9/15)
Length of Visible Light 13h 35m
Length of Day
12h 33m
Waxing Gibbous, 82% of the Moon is Illuminated
Sep 15
Waxing Gibbous
Sep 19
Full
Sep 26
Last Quarter
Oct 4
New
Oct 11
First Quarter

Hourly Weather History & Observations

Time (CDT) Temp. Dew Point Humidity Pressure Visibility Wind Dir Wind Speed Gust Speed Precip Events Conditions
12:53 AM 53.1 °F 51.1 °F 93% 29.97 in 2.0 mi Calm Calm - N/A   Mostly Cloudy
1:00 AM 51.8 °F 50.0 °F 94% 29.96 in 1.0 mi Calm Calm - N/A   Mostly Cloudy
1:10 AM 51.8 °F 50.0 °F 94% 29.97 in 3.0 mi Calm Calm - N/A   Overcast
1:53 AM 53.1 °F 51.1 °F 93% 29.98 in 10.0 mi Calm Calm - N/A   Overcast
2:37 AM 53.6 °F 51.8 °F 94% 29.97 in 10.0 mi Calm Calm - N/A   Overcast
2:53 AM 54.0 °F 52.0 °F 93% 29.98 in 10.0 mi Calm Calm - N/A   Overcast
3:26 AM 55.4 °F 53.6 °F 94% 29.97 in 10.0 mi Calm Calm - N/A   Overcast
3:53 AM 55.9 °F 53.1 °F 90% 29.99 in 10.0 mi North 4.6 mph - 0.00 in Rain Light Rain
4:53 AM 57.0 °F 53.1 °F 87% 29.99 in 10.0 mi NNE 8.1 mph - 0.00 in   Overcast
5:01 AM 57.2 °F 53.6 °F 88% 29.99 in 10.0 mi NNE 10.4 mph - N/A   Overcast
5:49 AM 55.4 °F 51.8 °F 88% 30.02 in 10.0 mi NNE 10.4 mph - N/A   Overcast
5:53 AM 55.0 °F 51.1 °F 86% 30.03 in 10.0 mi NNE 6.9 mph - N/A   Overcast
6:53 AM 54.0 °F 50.0 °F 86% 30.07 in 10.0 mi NNE 8.1 mph - N/A   Overcast
7:15 AM 53.6 °F 50.0 °F 88% 30.07 in 10.0 mi NNE 8.1 mph - N/A   Overcast
7:36 AM 53.6 °F 48.2 °F 82% 30.08 in 10.0 mi NE 8.1 mph - N/A   Overcast
7:53 AM 54.0 °F 48.0 °F 80% 30.11 in 10.0 mi NE 10.4 mph 16.1 mph N/A   Overcast
8:19 AM 53.6 °F 48.2 °F 82% 30.10 in 10.0 mi North 9.2 mph - N/A   Overcast
8:53 AM 52.0 °F 48.0 °F 86% 30.14 in 8.0 mi NNE 9.2 mph - 0.00 in Rain Light Rain
9:17 AM 51.8 °F 46.4 °F 82% 30.14 in 10.0 mi NNE 10.4 mph - 0.00 in   Overcast
9:42 AM 51.8 °F 46.4 °F 82% 30.15 in 10.0 mi NNE 5.8 mph - 0.00 in   Overcast
9:53 AM 53.1 °F 45.0 °F 74% 30.17 in 10.0 mi NE 10.4 mph - 0.00 in   Overcast
10:53 AM 53.1 °F 43.0 °F 69% 30.21 in 10.0 mi NNE 12.7 mph - N/A   Overcast
11:53 AM 53.1 °F 42.1 °F 66% 30.23 in 10.0 mi North 10.4 mph - N/A   Overcast
12:53 PM 54.0 °F 42.1 °F 64% 30.25 in 10.0 mi ENE 8.1 mph 17.3 mph N/A   Overcast
1:53 PM 55.9 °F 42.1 °F 60% 30.26 in 10.0 mi ENE 9.2 mph - N/A   Mostly Cloudy
2:21 PM 55.4 °F 41.0 °F 58% 30.24 in 10.0 mi ENE 6.9 mph - N/A   Mostly Cloudy
2:53 PM 59.0 °F 43.0 °F 55% 30.27 in 10.0 mi North 9.2 mph - N/A   Mostly Cloudy
3:53 PM 57.9 °F 42.1 °F 56% 30.27 in 10.0 mi North 10.4 mph - N/A   Mostly Cloudy
4:53 PM 57.9 °F 41.0 °F 53% 30.28 in 10.0 mi NNW 10.4 mph - N/A   Clear
5:53 PM 57.9 °F 39.0 °F 49% 30.29 in 10.0 mi North 5.8 mph - N/A   Clear
6:53 PM 55.0 °F 41.0 °F 59% 30.31 in 10.0 mi North 3.5 mph - N/A   Clear
7:53 PM 44.1 °F 41.0 °F 89% 30.33 in 10.0 mi Calm Calm - N/A   Clear
8:53 PM 39.9 °F 37.9 °F 93% 30.34 in 10.0 mi Calm Calm - N/A   Clear
9:53 PM 39.0 °F 37.0 °F 93% 30.35 in 10.0 mi Calm Calm - N/A   Clear
10:53 PM 36.0 °F 33.1 °F 89% 30.36 in 10.0 mi Calm Calm - N/A   Clear
11:24 PM 33.8 °F 32.0 °F 93% 30.33 in 1.5 mi Calm Calm - N/A   Clear
11:46 PM 33.8 °F 32.0 °F 93% 30.33 in 2.0 mi Calm Calm - N/A   Clear
11:53 PM 34.0 °F 32.0 °F 92% 30.38 in 2.0 mi Calm Calm - N/A   Clear